Wind_Speed
17 17 18 17 16 17 18 17 15 14 13 11 12 11 11 11 11 9 8 7 6 7 6 6 6 7 7 5 7 8 8 7 6 7 10 10 9 11 9 8 7 6 7
21 19 18 19 19 19 20 20 17 17 15 16 14 14 13 15 12 10 8 7 7 8 9 9 7 8 7 6 7 8 7 8 7 9 10 12 19 14 13 12 9 11 11
24 22 21 22 23 25 23 23 21 20 20 18 16 18 17 14 13 11 8 9 11 9 10 12 11 11 9 8 9 9 10 10 9 10 11 15 20 20 20 18 17 12 13
25 26 22 25 29 30 29 27 26 23 23 22 21 20 18 16 15 13 11 12 14 15 15 14 16 13 13 12 11 12 13 13 11 13 14 15 15 13 12 14 8 8 18
25 25 24 26 27 31 28 31 31 28 24 25 25 24 22 19 16 16 16 15 15 17 18 16 15 16 17 16 15 15 17 16 15 14 16 18 16 15 10 10 12 15 19
21 25 27 26 27 27 28 30 33 32 26 25 26 25 23 20 21 21 22 20 18 17 18 18 20 19 20 20 18 18 18 19 18 18 17 18 17 15 14 12 14 15 13
27 25 30 31 35 40 24 27 33 34 30 26 27 26 25 23 25 24 24 23 22 22 23 23 24 23 24 22 20 22 21 21 22 21 22 19 16 18 19 16 18 19 18
30 29 28 32 32 36 29 30 35 32 30 31 30 29 27 27 28 27 27 25 24 26 27 25 24 24 25 22 25 25 24 23 23 25 22 20 22 23 22 23 23 21 21
34 33 31 30 32 32 34 36 35 30 34 29 31 33 30 31 29 30 30 28 25 26 28 27 27 28 26 25 27 30 28 26 25 25 25 25 26 28 26 25 26 31 31
34 35 34 31 31 34 34 34 35 45 45 35 31 31 32 32 31 33 30 28 26 26 29 30 31 30 31 29 28 30 29 30 26 25 25 29 30 28 29 32 34 36 37
34 33 34 33 31 33 32 33 38 33 32 33 34 32 34 33 32 28 30 37 31 31 30 26 26 26 29 27 29 32 30 29 30 30 32 32 32 34 33 32 33 32 31
31 32 32 35 33 35 33 33 35 37 41 39 36 31 36 37 33 30 23 28 29 30 30 33 33 28 28 27 26 25 29 32 34 34 36 32 29 32 30 29 30 37 37
28 29 31 32 32 34 34 32 34 33 21 32 34 30 38 35 30 30 31 31 33 31 33 32 34 30 30 30 29 27 28 28 28 29 25 25 25 26 29 32 32 36 37
25 28 30 28 29 31 30 29 24 22 20 26 34 32 28 30 33 34 32 32 27 30 31 31 34 32 32 29 36 32 26 20 18 20 21 22 24 26 27 26 27 30 29
21 22 26 24 24 25 23 26 18 25 27 27 31 31 29 32 33 33 31 27 29 30 32 35 36 31 28 24 23 25 26 24 22 21 21 22 23 26 27 28 28 30 31
10 12 13 14 19 26 27 24 21 30 27 26 31 33 30 28 27 27 29 28 29 25 15 12 14 18 21 25 24 23 22 22 22 21 23 25 26 27 28 29 31 33 33
12 12 12 11 11 15 18 21 22 21 22 24 28 27 28 31 29 25 25 21 11 8 10 13 18 21 24 25 26 23 22 24 23 24 26 25 25 24 24 25 26 27 28
9 3 2 6 17 6 7 7 11 10 9 9 18 14 10 9 5 1 3 5 8 14 19 19 19 15 13 11 11 13 13 14 15 16 18 18 19 21 23 25 26 28 30
10 8 8 6 6 8 6 12 9 13 12 10 9 7 8 8 8 8 7 4 3 4 6 7 7 9 10 11 11 13 14 16 17 19 20 21 22 24 26 28 29 31 32
8 7 9 11 12 12 13 13 13 13 13 11 7 6 4 2 0 2 3 4 5 6 9 10 12 13 13 15 15 16 17 17 18 20 20 20 20 22 24 28 30 34 36
11 11 10 10 11 10 9 9 9 8 7 6 6 5 4 3 5 4 6 7 9 11 13 13 14 15 16 15 15 16 16 15 14 15 18 22 23 26 30 34 37 41 44
9 8 7 8 9 11 10 9 8 7 4 3 2 3 3 5 6 7 8 11 12 11 12 15 16 16 15 14 13 12 12 15 18 19 22 26 30 33 38 42 46 49 52
9 8 8 10 9 7 6 3 2 1 1 3 5 5 6 7 7 8 10 13 15 15 14 14 12 12 12 12 13 13 15 16 19 22 25 29 34 38 43 47 51 53 50
12 10 8 6 4 2 2 1 2 2 4 4 5 7 7 8 9 11 12 15 17 16 15 12 11 10 9 10 11 13 17 18 23 28 30 33 38 44 49 53 53 48 46
10 9 8 6 4 2 3 4 4 6 8 12 12 12 13 14 14 15 15 15 16 15 13 13 14 13 14 15 16 18 20 24 28 32 35 39 46 50 52 49 47 45 44
15 14 12 10 10 11 11 12 12 14 15 15 17 19 19 19 20 20 20 20 18 19 16 15 16 16 16 17 20 22 25 29 33 36 39 44 49 50 47 43 43 42 36
Wind_Direction
224 228 240 233 227 238 248 247 246 235 244 246 240 244 251 259 250 244 240 242 260 281 281 269 269 288 298 302 299 296 308 324 331 324 321 304 291 284 281 278 274 267 267
239 223 229 246 242 238 240 243 243 241 244 239 247 250 255 252 255 247 244 265 267 270 280 282 275 260 257 266 285 293 294 296 305 307 305 301 296 277 268 271 267 278 271
245 245 229 237 241 240 235 240 234 237 242 237 238 242 248 250 256 249 248 257 255 262 255 273 278 274 281 285 287 292 295 294 304 309 313 301 296 298 288 265 260 251 256
248 252 250 255 237 231 234 234 238 232 237 237 239 243 245 251 252 253 250 251 254 255 262 273 272 283 283 282 283 286 296 294 301 301 311 310 319 336 306 297 326 276 260
242 249 246 256 237 228 235 244 246 243 235 238 237 238 242 248 255 257 259 256 252 254 264 267 272 275 280 283 281 286 290 292 293 295 299 304 313 314 319 316 317 318 323
248 241 239 245 244 238 234 234 246 244 238 239 240 242 244 248 251 253 257 260 261 264 267 272 274 276 280 281 286 287 284 288 289 289 293 296 298 294 298 298 284 279 300
248 243 241 240 245 253 230 230 240 243 238 239 238 240 243 247 252 255 258 257 263 266 267 266 273 277 277 282 282 281 284 286 287 287 291 291 294 285 280 280 288 292 291
249 245 247 244 247 250 254 229 232 235 236 239 239 240 241 243 248 254 256 259 261 266 269 272 273 276 280 279 281 281 281 281 282 288 289 285 288 287 280 272 281 279 280
249 248 245 248 247 249 251 252 235 233 239 237 234 244 241 245 249 253 253 253 258 264 267 270 271 273 270 274 279 276 278 280 285 284 282 283 290 290 282 271 273 277 282
246 246 246 245 246 243 246 253 245 228 237 244 242 245 245 247 245 252 254 253 250 255 261 268 270 269 274 271 270 277 276 279 286 284 284 284 288 287 284 284 280 283 285
246 244 245 244 250 245 247 248 246 245 238 236 240 255 241 245 247 255 263 254 256 257 259 261 275 274 270 273 274 282 280 277 284 285 292 291 287 290 289 288 292 287 285
249 242 242 243 248 251 251 254 242 241 246 242 236 238 240 248 253 262 262 255 255 264 258 265 268 275 276 272 276 273 288 290 291 287 290 283 288 287 289 290 289 273 280
251 245 240 241 250 250 253 262 267 266 270 223 222 240 252 250 256 260 261 258 266 270 256 269 265 272 275 277 279 288 295 292 294 289 276 283 284 291 290 288 286 278 275
254 250 237 250 260 253 256 266 255 263 263 243 241 240 248 245 246 259 261 269 273 269 263 255 267 264 282 287 277 283 289 294 294 290 290 280 280 284 287 290 291 292 294
245 244 246 263 254 254 253 259 262 257 260 258 236 235 246 254 250 252 260 262 260 259 256 261 268 274 274 279 283 280 282 285 282 281 281 282 281 282 282 285 287 289 291
251 243 242 230 253 248 247 251 246 250 258 239 251 249 253 251 253 256 259 262 256 254 247 261 268 266 279 283 281 280 280 280 278 277 277 277 280 283 284 289 293 294 295
260 264 260 283 279 259 252 246 242 247 245 255 247 250 244 245 243 246 233 224 227 273 279 275 270 271 270 272 275 280 283 281 281 285 286 290 294 295 299 300 299 301 302
245 188 81 244 242 212 111 213 215 188 184 204 232 225 216 214 216 1 4 343 289 272 266 265 269 270 275 286 296 295 298 299 302 302 302 305 310 313 313 311 309 308 307
140 127 121 121 132 116 113 92 108 129 101 104 117 130 137 152 164 180 176 174 207 240 263 275 296 298 300 297 301 306 305 305 306 306 306 307 307 308 308 308 308 307 308
153 145 142 130 123 129 146 144 145 140 141 151 151 147 168 179 147 346 339 314 311 302 294 295 288 289 291 293 294 294 294 298 300 302 307 309 310 310 312 312 312 311 308
150 148 140 134 128 130 135 138 132 127 128 131 127 129 111 81 75 47 14 344 326 305 297 297 296 289 284 284 283 284 291 294 301 307 311 312 314 316 314 312 308 306 305
169 164 156 146 140 137 135 136 132 128 121 102 72 40 22 10 6 7 0 338 324 302 291 293 288 282 279 281 287 293 300 306 309 310 314 316 316 314 312 312 311 309 308
193 184 165 155 147 147 150 149 138 150 330 349 319 311 318 326 328 317 321 325 321 309 295 290 284 284 282 284 284 288 298 304 307 309 309 311 312 314 314 313 313 312 311
181 173 170 165 171 174 194 226 284 312 303 294 303 308 312 317 310 309 308 319 317 306 293 279 279 284 281 281 289 295 299 305 306 308 309 312 314 318 317 314 313 313 313
192 191 186 184 195 225 263 277 279 286 294 303 304 307 308 306 304 305 301 299 305 298 296 292 288 289 289 291 295 298 304 308 308 311 317 316 317 319 317 317 316 317 315
221 223 228 237 253 264 273 282 286 286 284 284 289 297 299 299 299 295 290 287 299 304 293 297 297 299 296 290 289 288 294 301 306 308 309 312 317 318 318 320 320 319 318
Height
5886 5887 5891 5890 5891 5893 5897 5901 5904 5906 5907 5908 5908 5909 5910 5911 5914 5914 5915 5913 5913 5916 5916 5917 5917 5917 5917 5915 5915 5914 5916 5915 5914 5913 5913 5914 5913 5912 5910 5909 5907 5906 5906
5884 5882 5885 5886 5888 5889 5892 5896 5901 5903 5905 5906 5906 5906 5907 5909 5910 5913 5911 5910 5911 5912 5912 5915 5916 5916 5916 5914 5912 5911 5914 5913 5912 5911 5911 5910 5908 5908 5908 5906 5904 5904 5904
5875 5877 5878 5880 5882 5884 5887 5890 5895 5898 5900 5902 5904 5905 5905 5904 5906 5908 5907 5908 5908 5909 5910 5912 5914 5913 5913 5912 5910 5908 5908 5910 5908 5908 5907 5906 5904 5901 5898 5895 5898 5900 5900
5869 5871 5873 5874 5874 5876 5880 5884 5886 5889 5894 5898 5898 5900 5900 5900 5902 5902 5904 5906 5907 5907 5908 5911 5910 5909 5908 5909 5908 5905 5905 5905 5905 5904 5904 5901 5899 5896 5893 5892 5893 5893 5893
5865 5865 5866 5867 5867 5871 5874 5879 5883 5883 5886 5889 5892 5893 5894 5894 5896 5897 5899 5902 5903 5905 5905 5906 5906 5905 5905 5904 5904 5902 5901 5901 5900 5901 5899 5896 5896 5894 5892 5892 5893 5891 5888
5858 5859 5860 5861 5862 5865 5867 5869 5875 5879 5879 5881 5884 5886 5887 5889 5889 5892 5894 5896 5897 5899 5901 5902 5900 5901 5900 5899 5899 5898 5898 5898 5897 5897 5896 5895 5893 5892 5891 5890 5890 5889 5888
5849 5851 5852 5854 5854 5833 5833 5860 5868 5872 5871 5873 5877 5879 5881 5884 5883 5885 5888 5889 5891 5893 5894 5895 5895 5895 5894 5894 5893 5892 5893 5893 5892 5892 5891 5890 5888 5888 5887 5886 5885 5884 5883
5841 5843 5845 5848 5848 5848 5849 5853 5860 5863 5864 5866 5871 5872 5876 5877 5877 5880 5881 5883 5886 5886 5886 5888 5888 5887 5887 5889 5887 5887 5887 5887 5886 5885 5884 5884 5883 5882 5881 5880 5879 5877 5876
5833 5836 5838 5840 5843 5845 5845 5845 5848 5853 5854 5859 5863 5865 5869 5870 5871 5873 5875 5877 5879 5879 5879 5880 5880 5880 5881 5882 5881 5880 5879 5879 5878 5877 5876 5876 5875 5874 5873 5872 5872 5870 5869
5824 5827 5829 5831 5834 5836 5838 5839 5842 5842 5833 5848 5853 5858 5861 5861 5864 5865 5865 5869 5872 5873 5872 5873 5874 5873 5873 5874 5874 5872 5872 5872 5870 5869 5868 5867 5866 5864 5862 5861 5860 5859 5859
5814 5817 5820 5823 5825 5827 5829 5830 5831 5833 5837 5841 5844 5848 5850 5853 5856 5857 5857 5860 5864 5865 5864 5865 5866 5865 5865 5865 5866 5864 5863 5863 5862 5860 5859 5857 5855 5853 5851 5850 5849 5849 5848
5804 5807 5811 5814 5816 5816 5819 5821 5821 5825 5829 5831 5834 5838 5842 5845 5848 5850 5849 5852 5855 5856 5855 5857 5858 5858 5857 5856 5856 5856 5855 5854 5852 5851 5849 5848 5846 5845 5843 5841 5841 5840 5838
5796 5798 5801 5804 5807 5808 5809 5812 5813 5814 5803 5814 5812 5825 5831 5837 5839 5842 5843 5844 5846 5846 5847 5847 5849 5849 5849 5848 5847 5847 5846 5844 5841 5840 5840 5839 5838 5836 5834 5833 5832 5831 5829
5788 5789 5792 5796 5799 5801 5802 5804 5806 5806 5809 5811 5813 5817 5823 5828 5831 5833 5834 5835 5835 5836 5836 5838 5839 5840 5840 5840 5841 5839 5837 5836 5835 5833 5832 5832 5831 5829 5827 5825 5824 5823 5821
5782 5783 5787 5789 5790 5793 5797 5796 5799 5801 5804 5806 5809 5812 5816 5819 5822 5823 5825 5826 5828 5828 5829 5830 5831 5832 5833 5833 5831 5831 5829 5828 5827 5825 5824 5824 5823 5822 5820 5817 5816 5814 5812
5776 5778 5780 5782 5783 5785 5788 5791 5793 5795 5798 5800 5803 5806 5808 5809 5812 5814 5816 5817 5818 5820 5821 5822 5825 5824 5824 5824 5824 5822 5822 5821 5820 5819 5818 5817 5816 5814 5813 5811 5808 5805 5803
5774 5775 5776 5777 5777 5778 5780 5783 5786 5788 5791 5793 5797 5798 5800 5802 5804 5806 5808 5809 5810 5812 5813 5816 5816 5816 5817 5816 5816 5815 5814 5814 5813 5812 5812 5809 5808 5806 5804 5802 5799 5798 5794
5772 5773 5773 5774 5777 5777 5779 5780 5781 5784 5786 5789 5791 5793 5794 5796 5798 5800 5801 5803 5806 5807 5808 5808 5809 5808 5809 5809 5809 5809 5808 5808 5806 5805 5805 5803 5801 5798 5797 5794 5792 5789 5786
5771 5772 5773 5773 5774 5777 5779 5779 5783 5784 5786 5788 5790 5792 5793 5795 5798 5800 5799 5799 5800 5802 5803 5803 5802 5804 5803 5804 5802 5802 5802 5802 5801 5800 5799 5797 5795 5793 5790 5788 5785 5781 5778
5771 5771 5773 5774 5776 5778 5779 5782 5784 5785 5786 5789 5790 5791 5793 5795 5794 5795 5795 5796 5796 5796 5797 5798 5799 5799 5798 5799 5798 5798 5797 5795 5795 5793 5791 5789 5788 5786 5782 5778 5775 5772 5770
5772 5773 5775 5776 5777 5779 5781 5782 5783 5785 5787 5788 5789 5790 5791 5792 5792 5792 5792 5793 5793 5793 5794 5795 5794 5793 5793 5792 5792 5791 5790 5789 5788 5786 5784 5782 5780 5776 5774 5771 5767 5763 5757
5773 5775 5776 5777 5779 5780 5781 5782 5783 5785 5787 5788 5788 5788 5790 5789 5788 5788 5789 5790 5790 5791 5790 5788 5788 5787 5786 5785 5784 5784 5783 5781 5780 5779 5777 5774 5770 5768 5765 5761 5755 5749 5741
5773 5774 5775 5776 5777 5779 5781 5782 5783 5783 5785 5785 5787 5788 5788 5786 5785 5786 5787 5786 5784 5783 5784 5782 5781 5779 5778 5778 5778 5777 5776 5774 5773 5771 5768 5765 5763 5759 5755 5748 5741 5734 5728
5773 5774 5775 5775 5776 5777 5779 5780 5781 5781 5781 5784 5783 5784 5784 5784 5784 5783 5782 5780 5779 5777 5776 5776 5775 5773 5772 5771 5770 5769 5768 5767 5764 5761 5759 5756 5753 5748 5741 5734 5727 5721 5715
5771 5772 5773 5774 5775 5776 5777 5778 5778 5779 5780 5779 5780 5780 5779 5778 5778 5777 5777 5777 5776 5774 5771 5770 5768 5768 5766 5764 5763 5761 5759 5758 5756 5753 5749 5746 5741 5736 5729 5722 5716 5710 5704
5768 5769 5770 5770 5771 5773 5773 5774 5774 5775 5776 5777 5776 5774 5772 5771 5771 5771 5771 5770 5767 5766 5765 5764 5763 5760 5759 5758 5756 5755 5753 5751 5748 5745 5741 5736 5730 5724 5716 5711 5704 5699 5693